Year,Month,Day,Hour,Minute,Value (Times are PST for temperature in C)
2019,04,09,00,00,7.00
2019,04,09,00,01,7.00
2019,04,09,00,02,7.00
2019,04,09,00,03,7.00
2019,04,09,00,04,7.00
2019,04,09,00,05,7.00
2019,04,09,00,06,7.00
2019,04,09,00,07,7.00
2019,04,09,00,08,7.00
2019,04,09,00,09,7.00
2019,04,09,00,10,7.00
2019,04,09,00,11,7.00
2019,04,09,00,12,7.00
2019,04,09,00,13,7.00
2019,04,09,00,14,7.00
2019,04,09,00,15,7.00
2019,04,09,00,16,7.00
2019,04,09,00,17,7.00
2019,04,09,00,18,7.00
2019,04,09,00,19,7.10
2019,04,09,00,20,7.10
2019,04,09,00,21,7.10
2019,04,09,00,22,7.10
2019,04,09,00,23,7.10
2019,04,09,00,24,7.10
2019,04,09,00,25,7.10
2019,04,09,00,26,7.10
2019,04,09,00,27,7.10
2019,04,09,00,28,7.10
2019,04,09,00,29,7.10
2019,04,09,00,30,7.10
2019,04,09,00,31,7.10
2019,04,09,00,32,7.10
2019,04,09,00,33,7.10
2019,04,09,00,34,7.10
2019,04,09,00,35,7.10
2019,04,09,00,36,7.10
2019,04,09,00,37,7.10
2019,04,09,00,38,7.10
2019,04,09,00,39,7.10
2019,04,09,00,40,7.10
2019,04,09,00,41,7.10
2019,04,09,00,42,7.20
2019,04,09,00,43,7.20
2019,04,09,00,44,7.20
2019,04,09,00,45,7.20
2019,04,09,00,46,7.20
2019,04,09,00,47,7.20
2019,04,09,00,48,7.20
2019,04,09,00,49,7.10
2019,04,09,00,50,7.10
2019,04,09,00,51,7.10
2019,04,09,00,52,7.10
2019,04,09,00,53,7.10
2019,04,09,00,54,7.10
2019,04,09,00,55,7.10
2019,04,09,00,56,7.10
2019,04,09,00,57,7.10
2019,04,09,00,58,7.10
2019,04,09,00,59,7.10
2019,04,09,01,00,7.10
2019,04,09,01,01,7.10
2019,04,09,01,02,7.10
2019,04,09,01,03,7.10
2019,04,09,01,04,7.10
2019,04,09,01,05,7.10
2019,04,09,01,06,7.10
2019,04,09,01,07,7.10
2019,04,09,01,08,7.10
2019,04,09,01,09,7.10
2019,04,09,01,10,7.10
2019,04,09,01,11,7.10
2019,04,09,01,12,7.10
2019,04,09,01,13,7.10
2019,04,09,01,14,7.10
2019,04,09,01,15,7.10
2019,04,09,01,16,7.10
2019,04,09,01,17,7.10
2019,04,09,01,18,7.10
2019,04,09,01,19,7.10
2019,04,09,01,20,7.10
2019,04,09,01,21,7.10
2019,04,09,01,22,7.10
2019,04,09,01,23,7.10
2019,04,09,01,24,7.10
2019,04,09,01,25,7.10
2019,04,09,01,26,7.10
2019,04,09,01,27,7.10
2019,04,09,01,28,7.10
2019,04,09,01,29,7.10
2019,04,09,01,30,7.10
2019,04,09,01,31,7.10
2019,04,09,01,32,7.10
2019,04,09,01,33,7.10
2019,04,09,01,34,7.10
2019,04,09,01,35,7.10
2019,04,09,01,36,7.10
2019,04,09,01,37,7.10
2019,04,09,01,38,7.10
2019,04,09,01,39,7.10
2019,04,09,01,40,7.10
2019,04,09,01,41,7.10
2019,04,09,01,42,7.10
2019,04,09,01,43,7.00
2019,04,09,01,44,7.00
2019,04,09,01,45,7.10
2019,04,09,01,46,7.00
2019,04,09,01,47,7.00
2019,04,09,01,48,7.00
2019,04,09,01,49,7.00
2019,04,09,01,50,7.00
2019,04,09,01,51,7.00
2019,04,09,01,52,7.00
2019,04,09,01,53,7.00
2019,04,09,01,54,7.00
2019,04,09,01,55,7.00
2019,04,09,01,56,7.00
2019,04,09,01,57,7.00
2019,04,09,01,58,7.00
2019,04,09,01,59,7.00
2019,04,09,02,00,7.00
2019,04,09,02,01,7.00
2019,04,09,02,02,7.00
2019,04,09,02,03,6.90
2019,04,09,02,04,6.90
2019,04,09,02,05,6.90
2019,04,09,02,06,6.90
2019,04,09,02,07,6.90
2019,04,09,02,08,6.90
2019,04,09,02,09,6.90
2019,04,09,02,10,6.90
2019,04,09,02,11,6.90
2019,04,09,02,12,6.90
2019,04,09,02,13,6.90
2019,04,09,02,14,6.90
2019,04,09,02,15,6.90
2019,04,09,02,16,6.90
2019,04,09,02,17,6.90
2019,04,09,02,18,6.90
2019,04,09,02,19,6.90
2019,04,09,02,20,6.90
2019,04,09,02,21,6.90
2019,04,09,02,22,6.90
2019,04,09,02,23,6.90
2019,04,09,02,24,6.90
2019,04,09,02,25,6.90
2019,04,09,02,26,6.90
2019,04,09,02,27,6.90
2019,04,09,02,28,6.90
2019,04,09,02,29,6.90
2019,04,09,02,30,6.90
2019,04,09,02,31,6.90
2019,04,09,02,32,6.90
2019,04,09,02,33,6.90
2019,04,09,02,34,6.80
2019,04,09,02,35,6.80
2019,04,09,02,36,6.80
2019,04,09,02,37,6.80
2019,04,09,02,38,6.80
2019,04,09,02,39,6.80
2019,04,09,02,40,6.80
2019,04,09,02,41,6.80
2019,04,09,02,42,6.80
2019,04,09,02,43,6.80
2019,04,09,02,44,6.80
2019,04,09,02,45,6.80
2019,04,09,02,46,6.80
2019,04,09,02,47,6.80
2019,04,09,02,48,6.80
2019,04,09,02,49,6.80
2019,04,09,02,50,6.80
2019,04,09,02,51,6.80
2019,04,09,02,52,6.80
2019,04,09,02,53,6.80
2019,04,09,02,54,6.80
2019,04,09,02,55,6.80
2019,04,09,02,56,6.80
2019,04,09,02,57,6.80
2019,04,09,02,58,6.80
2019,04,09,02,59,6.80
2019,04,09,03,00,6.80
2019,04,09,03,01,6.80
2019,04,09,03,02,6.80
2019,04,09,03,03,6.80
2019,04,09,03,04,6.80
2019,04,09,03,05,6.80
2019,04,09,03,06,6.80
2019,04,09,03,07,6.80
2019,04,09,03,08,6.80
2019,04,09,03,09,6.80
2019,04,09,03,10,6.80
2019,04,09,03,11,6.80
2019,04,09,03,12,6.80
2019,04,09,03,13,6.80
2019,04,09,03,14,6.80
2019,04,09,03,15,6.80
2019,04,09,03,16,6.80
2019,04,09,03,17,6.80
2019,04,09,03,18,6.80
2019,04,09,03,19,6.80
2019,04,09,03,20,6.80
2019,04,09,03,21,6.80
2019,04,09,03,22,6.80
2019,04,09,03,23,6.80
2019,04,09,03,24,6.80
2019,04,09,03,25,6.80
2019,04,09,03,26,6.80
2019,04,09,03,27,6.80
2019,04,09,03,28,6.80
2019,04,09,03,29,6.80
2019,04,09,03,30,6.80
2019,04,09,03,31,6.80
2019,04,09,03,32,6.80
2019,04,09,03,33,6.70
2019,04,09,03,34,6.70
2019,04,09,03,35,6.70
2019,04,09,03,36,6.70
2019,04,09,03,37,6.70
2019,04,09,03,38,6.70
2019,04,09,03,39,6.70
2019,04,09,03,40,6.70
2019,04,09,03,41,6.70
2019,04,09,03,42,6.70
2019,04,09,03,43,6.70
2019,04,09,03,44,6.70
2019,04,09,03,45,6.70
2019,04,09,03,46,6.70
2019,04,09,03,47,6.60
2019,04,09,03,48,6.60
2019,04,09,03,49,6.60
2019,04,09,03,50,6.60
2019,04,09,03,51,6.60
2019,04,09,03,52,6.60
2019,04,09,03,53,6.60
2019,04,09,03,54,6.60
2019,04,09,03,55,6.60
2019,04,09,03,56,6.60
2019,04,09,03,57,6.60
2019,04,09,03,58,6.60
2019,04,09,03,59,6.60
2019,04,09,04,00,6.60
2019,04,09,04,01,6.60
2019,04,09,04,02,6.60
2019,04,09,04,03,6.60
2019,04,09,04,04,6.60
2019,04,09,04,05,6.60
2019,04,09,04,06,6.50
2019,04,09,04,07,6.50
2019,04,09,04,08,6.60
2019,04,09,04,09,6.50
2019,04,09,04,10,6.50
2019,04,09,04,11,6.50
2019,04,09,04,12,6.50
2019,04,09,04,13,6.50
2019,04,09,04,14,6.50
2019,04,09,04,15,6.50
2019,04,09,04,16,6.40
2019,04,09,04,17,6.40
2019,04,09,04,18,6.40
2019,04,09,04,19,6.40
2019,04,09,04,20,6.40
2019,04,09,04,21,6.40
2019,04,09,04,22,6.40
2019,04,09,04,23,6.30
2019,04,09,04,24,6.30
2019,04,09,04,25,6.30
2019,04,09,04,26,6.30
2019,04,09,04,27,6.30
2019,04,09,04,28,6.20
2019,04,09,04,29,6.20
2019,04,09,04,30,6.20
2019,04,09,04,31,6.20
2019,04,09,04,32,6.20
2019,04,09,04,33,6.10
2019,04,09,04,34,6.10
2019,04,09,04,35,6.10
2019,04,09,04,36,6.10
2019,04,09,04,37,6.00
2019,04,09,04,38,6.00
2019,04,09,04,39,6.00
2019,04,09,04,40,6.00
2019,04,09,04,41,6.00
2019,04,09,04,42,5.90
2019,04,09,04,43,5.90
2019,04,09,04,44,5.90
2019,04,09,04,45,5.90
2019,04,09,04,46,5.90
2019,04,09,04,47,5.90
2019,04,09,04,48,5.80
2019,04,09,04,49,5.80
2019,04,09,04,50,5.80
2019,04,09,04,51,5.80
2019,04,09,04,52,5.80
2019,04,09,04,53,5.80
2019,04,09,04,54,5.80
2019,04,09,04,55,5.70
2019,04,09,04,56,5.70
2019,04,09,04,57,5.70
2019,04,09,04,58,5.70
2019,04,09,04,59,5.70
2019,04,09,05,00,5.70
2019,04,09,05,01,5.70
2019,04,09,05,02,5.70
2019,04,09,05,03,5.70
2019,04,09,05,04,5.70
2019,04,09,05,05,5.70
2019,04,09,05,06,5.70
2019,04,09,05,07,5.70
2019,04,09,05,08,5.70
2019,04,09,05,09,5.70
2019,04,09,05,10,5.70
2019,04,09,05,11,5.80
2019,04,09,05,12,5.80
2019,04,09,05,13,5.80
2019,04,09,05,14,5.80
2019,04,09,05,15,5.80
2019,04,09,05,16,5.80
2019,04,09,05,17,5.80
2019,04,09,05,18,5.80
2019,04,09,05,19,5.80
2019,04,09,05,20,5.80
2019,04,09,05,21,5.80
2019,04,09,05,22,5.80
2019,04,09,05,23,5.70
2019,04,09,05,24,5.70
2019,04,09,05,25,5.70
2019,04,09,05,26,5.70
2019,04,09,05,27,5.70
2019,04,09,05,28,5.70
2019,04,09,05,29,5.70
2019,04,09,05,30,5.70
2019,04,09,05,31,5.70
2019,04,09,05,32,5.70
2019,04,09,05,33,5.60
2019,04,09,05,34,5.60
2019,04,09,05,35,5.60
2019,04,09,05,36,5.60
2019,04,09,05,37,5.60
2019,04,09,05,38,5.60
2019,04,09,05,39,5.60
2019,04,09,05,40,5.50
2019,04,09,05,41,5.50
2019,04,09,05,42,5.50
2019,04,09,05,43,5.50
2019,04,09,05,44,5.40
2019,04,09,05,45,5.40
2019,04,09,05,46,5.40
2019,04,09,05,47,5.40
2019,04,09,05,48,5.30
2019,04,09,05,49,5.30
2019,04,09,05,50,5.30
2019,04,09,05,51,5.30
2019,04,09,05,52,5.30
2019,04,09,05,53,5.30
2019,04,09,05,54,5.30
2019,04,09,05,55,5.30
2019,04,09,05,56,5.30
2019,04,09,05,57,5.30
2019,04,09,05,58,5.20
2019,04,09,05,59,5.20
2019,04,09,06,00,5.20
2019,04,09,06,01,5.20
2019,04,09,06,02,5.20
2019,04,09,06,03,5.20
2019,04,09,06,04,5.20
2019,04,09,06,05,5.20
2019,04,09,06,06,5.20
2019,04,09,06,07,5.30
2019,04,09,06,08,5.20
2019,04,09,06,09,5.20
2019,04,09,06,10,5.20
2019,04,09,06,11,5.20
2019,04,09,06,12,5.20
2019,04,09,06,13,5.20
2019,04,09,06,14,5.20
2019,04,09,06,15,5.20
2019,04,09,06,16,5.20
2019,04,09,06,17,5.20
2019,04,09,06,18,5.20
2019,04,09,06,19,5.30
2019,04,09,06,20,5.30
2019,04,09,06,21,5.30
2019,04,09,06,22,5.30
2019,04,09,06,23,5.30
2019,04,09,06,24,5.30
2019,04,09,06,25,5.30
2019,04,09,06,26,5.30
2019,04,09,06,27,5.30
2019,04,09,06,28,5.30
2019,04,09,06,29,5.30
2019,04,09,06,30,5.20
2019,04,09,06,31,5.20
2019,04,09,06,32,5.20
2019,04,09,06,33,5.20
2019,04,09,06,34,5.20
2019,04,09,06,35,5.20
2019,04,09,06,36,5.20
2019,04,09,06,37,5.20
2019,04,09,06,38,5.20
2019,04,09,06,39,5.10
2019,04,09,06,40,5.10
2019,04,09,06,41,5.10
2019,04,09,06,42,5.10
2019,04,09,06,43,5.10
2019,04,09,06,44,5.10
2019,04,09,06,45,5.10
2019,04,09,06,46,5.10
2019,04,09,06,47,5.10
2019,04,09,06,48,5.00
2019,04,09,06,49,5.00
2019,04,09,06,50,5.00
2019,04,09,06,51,5.00
2019,04,09,06,52,5.00
2019,04,09,06,53,5.00
2019,04,09,06,54,5.00
2019,04,09,06,55,5.00
2019,04,09,06,56,5.00
2019,04,09,06,57,5.00
2019,04,09,06,58,5.00
2019,04,09,06,59,5.00
2019,04,09,07,00,5.00
2019,04,09,07,01,5.00
2019,04,09,07,02,5.00
2019,04,09,07,03,5.00
2019,04,09,07,04,5.00
2019,04,09,07,05,5.00
2019,04,09,07,06,5.00
2019,04,09,07,07,5.00
2019,04,09,07,08,5.00
2019,04,09,07,09,5.00
2019,04,09,07,10,5.00
2019,04,09,07,11,5.00
2019,04,09,07,12,5.00
2019,04,09,07,13,5.00
2019,04,09,07,14,5.00
2019,04,09,07,15,5.00
2019,04,09,07,16,5.00
2019,04,09,07,17,5.10
2019,04,09,07,18,5.10
2019,04,09,07,19,5.20
2019,04,09,07,20,5.20
2019,04,09,07,21,5.20
2019,04,09,07,22,5.30
2019,04,09,07,23,5.40
2019,04,09,07,24,5.40
2019,04,09,07,25,5.50
2019,04,09,07,26,5.60
2019,04,09,07,27,5.60
2019,04,09,07,28,5.70
2019,04,09,07,29,5.80
2019,04,09,07,30,5.80
2019,04,09,07,31,5.90
2019,04,09,07,32,5.90
2019,04,09,07,33,6.00
2019,04,09,07,34,6.10
2019,04,09,07,35,6.10
2019,04,09,07,36,6.20
2019,04,09,07,37,6.30
2019,04,09,07,38,6.40
2019,04,09,07,39,6.40
2019,04,09,07,40,6.50
2019,04,09,07,41,6.50
2019,04,09,07,42,6.60
2019,04,09,07,43,6.70
2019,04,09,07,44,6.80
2019,04,09,07,45,6.80
2019,04,09,07,46,6.90
2019,04,09,07,47,7.00
2019,04,09,07,48,7.10
2019,04,09,07,49,7.10
2019,04,09,07,50,7.20
2019,04,09,07,51,7.30
2019,04,09,07,52,7.40
2019,04,09,07,53,7.40
2019,04,09,07,54,7.50
2019,04,09,07,55,7.60
2019,04,09,07,56,7.70
2019,04,09,07,57,7.70
2019,04,09,07,58,7.80
2019,04,09,07,59,7.90
2019,04,09,08,00,7.90
2019,04,09,08,01,8.00
2019,04,09,08,02,8.00
2019,04,09,08,03,8.10
2019,04,09,08,04,8.10
2019,04,09,08,05,8.10
2019,04,09,08,06,8.10
2019,04,09,08,07,8.10
2019,04,09,08,08,8.10
2019,04,09,08,09,8.10
2019,04,09,08,10,8.00
2019,04,09,08,11,8.00
2019,04,09,08,12,8.00
2019,04,09,08,13,8.00
2019,04,09,08,14,8.00
2019,04,09,08,15,8.00
2019,04,09,08,16,8.10
2019,04,09,08,17,8.10
2019,04,09,08,18,8.20
2019,04,09,08,19,8.20
2019,04,09,08,20,8.30
2019,04,09,08,21,8.30
2019,04,09,08,22,8.30
2019,04,09,08,23,8.40
2019,04,09,08,24,8.50
2019,04,09,08,25,8.50
2019,04,09,08,26,8.60
2019,04,09,08,27,8.70
2019,04,09,08,28,8.70
2019,04,09,08,29,8.80
2019,04,09,08,30,8.90
2019,04,09,08,31,8.90
2019,04,09,08,32,9.00
2019,04,09,08,33,9.10
2019,04,09,08,34,9.10
2019,04,09,08,35,9.20
2019,04,09,08,36,9.20
2019,04,09,08,37,9.30
2019,04,09,08,38,9.40
2019,04,09,08,39,9.40
2019,04,09,08,40,9.40
2019,04,09,08,41,9.50
2019,04,09,08,42,9.50
2019,04,09,08,43,9.50
2019,04,09,08,44,9.60
2019,04,09,08,45,9.60
2019,04,09,08,46,9.60
2019,04,09,08,47,9.70
2019,04,09,08,48,9.80
2019,04,09,08,49,9.80
2019,04,09,08,50,9.90
2019,04,09,08,51,10.00
2019,04,09,08,52,10.00
2019,04,09,08,53,10.10
2019,04,09,08,54,10.20
2019,04,09,08,55,10.20
2019,04,09,08,56,10.20
2019,04,09,08,57,10.20
2019,04,09,08,58,10.30
2019,04,09,08,59,10.30
2019,04,09,09,00,10.30
2019,04,09,09,01,10.40
2019,04,09,09,02,10.40
2019,04,09,09,03,10.40
2019,04,09,09,04,10.40
2019,04,09,09,05,10.40
2019,04,09,09,06,10.40
2019,04,09,09,07,10.40
2019,04,09,09,08,10.40
2019,04,09,09,09,10.40
2019,04,09,09,10,10.40
2019,04,09,09,11,10.50
2019,04,09,09,12,10.50
2019,04,09,09,13,10.50
2019,04,09,09,14,10.60
2019,04,09,09,15,10.60
2019,04,09,09,16,10.60
2019,04,09,09,17,10.60
2019,04,09,09,18,10.60
2019,04,09,09,19,10.60
2019,04,09,09,20,10.60
2019,04,09,09,21,10.60
2019,04,09,09,22,10.70
2019,04,09,09,23,10.70
2019,04,09,09,24,10.70
2019,04,09,09,25,10.80
2019,04,09,09,26,10.80
2019,04,09,09,27,10.80
2019,04,09,09,28,10.90
2019,04,09,09,29,10.90
2019,04,09,09,30,10.90
2019,04,09,09,31,10.90
2019,04,09,09,32,10.90
2019,04,09,09,33,10.90
2019,04,09,09,34,10.90
2019,04,09,09,35,10.90
2019,04,09,09,36,10.90
2019,04,09,09,37,10.90
2019,04,09,09,38,10.90
2019,04,09,09,39,10.90
2019,04,09,09,40,10.90
2019,04,09,09,41,11.00
2019,04,09,09,42,11.00
2019,04,09,09,43,11.00
2019,04,09,09,44,11.10
2019,04,09,09,45,11.10
2019,04,09,09,46,11.10
2019,04,09,09,47,11.20
2019,04,09,09,48,11.20
2019,04,09,09,49,11.20
2019,04,09,09,50,11.20
2019,04,09,09,51,11.20
2019,04,09,09,52,11.20
2019,04,09,09,53,11.20
2019,04,09,09,54,11.10
2019,04,09,09,55,11.10
2019,04,09,09,56,11.10
2019,04,09,09,57,11.10
2019,04,09,09,58,11.10
2019,04,09,09,59,11.10
2019,04,09,10,00,11.20
2019,04,09,10,01,11.20
2019,04,09,10,02,11.20
2019,04,09,10,03,11.20
2019,04,09,10,04,11.20
2019,04,09,10,05,11.20
2019,04,09,10,06,11.10
2019,04,09,10,07,11.10
2019,04,09,10,08,11.10
2019,04,09,10,09,11.20
2019,04,09,10,10,11.20
2019,04,09,10,11,11.20
2019,04,09,10,12,11.30
2019,04,09,10,13,11.30
2019,04,09,10,14,11.30
2019,04,09,10,15,11.30
2019,04,09,10,16,11.30
2019,04,09,10,17,11.30
2019,04,09,10,18,11.20
2019,04,09,10,19,11.20
2019,04,09,10,20,11.20
2019,04,09,10,21,11.10
2019,04,09,10,22,11.10
2019,04,09,10,23,11.00
2019,04,09,10,24,11.00
2019,04,09,10,25,11.00
2019,04,09,10,26,11.10
2019,04,09,10,27,11.20
2019,04,09,10,28,11.20
2019,04,09,10,29,11.30
2019,04,09,10,30,11.40
2019,04,09,10,31,11.50
2019,04,09,10,32,11.50
2019,04,09,10,33,11.60
2019,04,09,10,34,11.70
2019,04,09,10,35,11.70
2019,04,09,10,36,11.70
2019,04,09,10,37,11.70
2019,04,09,10,38,11.70
2019,04,09,10,39,11.70
2019,04,09,10,40,11.70
2019,04,09,10,41,11.70
2019,04,09,10,42,11.70
2019,04,09,10,43,11.70
2019,04,09,10,44,11.70
2019,04,09,10,45,11.70
2019,04,09,10,46,11.60
2019,04,09,10,47,11.60
2019,04,09,10,48,11.60
2019,04,09,10,49,11.50
2019,04,09,10,50,11.40
2019,04,09,10,51,11.40
2019,04,09,10,52,11.40
2019,04,09,10,53,11.30
2019,04,09,10,54,11.30
2019,04,09,10,55,11.30
2019,04,09,10,56,11.30
2019,04,09,10,57,11.30
2019,04,09,10,58,11.30
2019,04,09,10,59,11.30
2019,04,09,11,00,11.20
2019,04,09,11,01,11.20
2019,04,09,11,02,11.20
2019,04,09,11,03,11.20
2019,04,09,11,04,11.30
2019,04,09,11,05,11.30
2019,04,09,11,06,11.30
2019,04,09,11,07,11.30
2019,04,09,11,08,11.30
2019,04,09,11,09,11.30
2019,04,09,11,10,11.40
2019,04,09,11,11,11.40
2019,04,09,11,12,11.50
2019,04,09,11,13,11.50
2019,04,09,11,14,11.60
2019,04,09,11,15,11.60
2019,04,09,11,16,11.60
2019,04,09,11,17,11.60
2019,04,09,11,18,11.60
2019,04,09,11,19,11.60
2019,04,09,11,20,11.60
2019,04,09,11,21,11.60
2019,04,09,11,22,11.70
2019,04,09,11,23,11.70
2019,04,09,11,24,11.70
2019,04,09,11,25,11.70
2019,04,09,11,26,11.70
2019,04,09,11,27,11.60
2019,04,09,11,28,11.60
2019,04,09,11,29,11.60
2019,04,09,11,30,11.70
2019,04,09,11,31,11.70
2019,04,09,11,32,11.80
2019,04,09,11,33,11.80
2019,04,09,11,34,11.80
2019,04,09,11,35,11.80
2019,04,09,11,36,11.80
2019,04,09,11,37,11.70
2019,04,09,11,38,11.70
2019,04,09,11,39,11.60
2019,04,09,11,40,11.50
2019,04,09,11,41,11.40
2019,04,09,11,42,11.40
2019,04,09,11,43,11.40
2019,04,09,11,44,11.30
2019,04,09,11,45,11.30
2019,04,09,11,46,11.30
2019,04,09,11,47,11.30
2019,04,09,11,48,11.30
2019,04,09,11,49,11.40
2019,04,09,11,50,11.40
2019,04,09,11,51,11.50
2019,04,09,11,52,11.60
2019,04,09,11,53,11.70
2019,04,09,11,54,11.90
2019,04,09,11,55,12.00
2019,04,09,11,56,12.10
2019,04,09,11,57,12.20
2019,04,09,11,58,12.30
2019,04,09,11,59,12.40
2019,04,09,12,00,12.40
2019,04,09,12,01,12.40
2019,04,09,12,02,12.50
2019,04,09,12,03,12.50
2019,04,09,12,04,12.60
2019,04,09,12,05,12.60
2019,04,09,12,06,12.70
2019,04,09,12,07,12.70
2019,04,09,12,08,12.80
2019,04,09,12,09,12.80
2019,04,09,12,10,12.90
2019,04,09,12,11,12.90
2019,04,09,12,12,12.90
2019,04,09,12,13,13.00
2019,04,09,12,14,13.00
2019,04,09,12,15,13.00
2019,04,09,12,16,13.00
2019,04,09,12,17,12.90
2019,04,09,12,18,13.00
2019,04,09,12,19,13.00
2019,04,09,12,20,13.00
2019,04,09,12,21,13.10
2019,04,09,12,22,13.10
2019,04,09,12,23,13.00
2019,04,09,12,24,13.00
2019,04,09,12,25,13.00
2019,04,09,12,26,13.00
2019,04,09,12,27,13.00
2019,04,09,12,28,13.00
2019,04,09,12,29,13.00
2019,04,09,12,30,13.00
2019,04,09,12,31,13.00
2019,04,09,12,32,12.90
2019,04,09,12,33,12.90
2019,04,09,12,34,12.90
2019,04,09,12,35,12.90
2019,04,09,12,36,12.90
2019,04,09,12,37,12.90
2019,04,09,12,38,12.90
2019,04,09,12,39,13.00
2019,04,09,12,40,13.00
2019,04,09,12,41,13.10
2019,04,09,12,42,13.10
2019,04,09,12,43,13.10
2019,04,09,12,44,13.00
2019,04,09,12,45,13.00
2019,04,09,12,46,12.90
2019,04,09,12,47,12.80
2019,04,09,12,48,12.70
2019,04,09,12,49,12.70
2019,04,09,12,50,12.60
2019,04,09,12,51,12.40
2019,04,09,12,52,12.30
2019,04,09,12,53,12.20
2019,04,09,12,54,12.10
2019,04,09,12,55,12.00
2019,04,09,12,56,11.90
2019,04,09,12,57,11.80
2019,04,09,12,58,11.80
2019,04,09,12,59,11.70
2019,04,09,13,00,11.70
2019,04,09,13,01,11.60
2019,04,09,13,02,11.60
2019,04,09,13,03,11.60
2019,04,09,13,04,11.60
2019,04,09,13,05,11.50
2019,04,09,13,06,11.50
2019,04,09,13,07,11.40
2019,04,09,13,08,11.40
2019,04,09,13,09,11.40
2019,04,09,13,10,11.40
2019,04,09,13,11,11.40
2019,04,09,13,12,11.30
2019,04,09,13,13,11.30
2019,04,09,13,14,11.30
2019,04,09,13,15,11.30
2019,04,09,13,16,11.20
2019,04,09,13,17,11.20
2019,04,09,13,18,11.20
2019,04,09,13,19,11.20
2019,04,09,13,20,11.20
2019,04,09,13,21,11.20
2019,04,09,13,22,11.10
2019,04,09,13,23,11.10
2019,04,09,13,24,11.10
2019,04,09,13,25,11.10
2019,04,09,13,26,11.10
2019,04,09,13,27,11.10
2019,04,09,13,28,11.20
2019,04,09,13,29,11.20
2019,04,09,13,30,11.20
2019,04,09,13,31,11.20
2019,04,09,13,32,11.20
2019,04,09,13,33,11.20
2019,04,09,13,34,11.20
2019,04,09,13,35,11.20
2019,04,09,13,36,11.20
2019,04,09,13,37,11.20
2019,04,09,13,38,11.20
2019,04,09,13,39,11.20
2019,04,09,13,40,11.20
2019,04,09,13,41,11.20
2019,04,09,13,42,11.20
2019,04,09,13,43,11.20
2019,04,09,13,44,11.20
2019,04,09,13,45,11.20
2019,04,09,13,46,11.30
2019,04,09,13,47,11.40
2019,04,09,13,48,11.40
2019,04,09,13,49,11.60
2019,04,09,13,50,11.70
2019,04,09,13,51,11.80
2019,04,09,13,52,12.00
2019,04,09,13,53,12.10
2019,04,09,13,54,12.20
2019,04,09,13,55,12.30
2019,04,09,13,56,12.30
2019,04,09,13,57,12.30
2019,04,09,13,58,12.30
2019,04,09,13,59,12.20
2019,04,09,14,00,12.20
2019,04,09,14,01,12.20
2019,04,09,14,02,12.10
2019,04,09,14,03,12.10
2019,04,09,14,04,12.00
2019,04,09,14,05,12.00
2019,04,09,14,06,12.00
2019,04,09,14,07,12.00
2019,04,09,14,08,12.00
2019,04,09,14,09,12.00
2019,04,09,14,10,11.90
2019,04,09,14,11,12.00
2019,04,09,14,12,12.00
2019,04,09,14,13,12.00
2019,04,09,14,14,12.10
2019,04,09,14,15,12.10
2019,04,09,14,16,12.20
2019,04,09,14,17,12.30
2019,04,09,14,18,12.30
2019,04,09,14,19,12.40
2019,04,09,14,20,12.40
2019,04,09,14,21,12.50
2019,04,09,14,22,12.50
2019,04,09,14,23,12.60
2019,04,09,14,24,12.60
2019,04,09,14,25,12.60
2019,04,09,14,26,12.70
2019,04,09,14,27,12.70
2019,04,09,14,28,12.70
2019,04,09,14,29,12.70
2019,04,09,14,30,12.70
2019,04,09,14,31,12.70
2019,04,09,14,32,12.70
2019,04,09,14,33,12.70
2019,04,09,14,34,12.70
2019,04,09,14,35,12.70
2019,04,09,14,36,12.70
2019,04,09,14,37,12.70
2019,04,09,14,38,12.80
2019,04,09,14,39,12.80
2019,04,09,14,40,12.80
2019,04,09,14,41,12.80
2019,04,09,14,42,12.80
2019,04,09,14,43,12.70
2019,04,09,14,44,12.60
2019,04,09,14,45,12.60
2019,04,09,14,46,12.50
2019,04,09,14,47,12.50
2019,04,09,14,48,12.40
2019,04,09,14,49,12.40
2019,04,09,14,50,12.30
2019,04,09,14,51,12.30
2019,04,09,14,52,12.30
2019,04,09,14,53,12.30
2019,04,09,14,54,12.30
2019,04,09,14,55,12.40
2019,04,09,14,56,12.40
2019,04,09,14,57,12.40
2019,04,09,14,58,12.50
2019,04,09,14,59,12.50
2019,04,09,15,00,12.60
2019,04,09,15,01,12.60
2019,04,09,15,02,12.70
2019,04,09,15,03,12.80
2019,04,09,15,04,12.80
2019,04,09,15,05,12.80
2019,04,09,15,06,12.80
2019,04,09,15,07,12.80
2019,04,09,15,08,12.80
2019,04,09,15,09,12.80
2019,04,09,15,10,12.80
2019,04,09,15,11,12.80
2019,04,09,15,12,12.80
2019,04,09,15,13,12.90
2019,04,09,15,14,12.90
2019,04,09,15,15,13.00
2019,04,09,15,16,13.10
2019,04,09,15,17,13.20
2019,04,09,15,18,13.20
2019,04,09,15,19,13.40
2019,04,09,15,20,13.50
2019,04,09,15,21,13.60
2019,04,09,15,22,13.70
2019,04,09,15,23,13.80
2019,04,09,15,24,13.80
2019,04,09,15,25,13.80
2019,04,09,15,26,13.80
2019,04,09,15,27,13.80
2019,04,09,15,28,13.80
2019,04,09,15,29,13.90
2019,04,09,15,30,13.90
2019,04,09,15,31,13.90
2019,04,09,15,32,13.90
2019,04,09,15,33,13.70
2019,04,09,15,34,13.60
2019,04,09,15,35,13.60
2019,04,09,15,36,13.50
2019,04,09,15,37,13.40
2019,04,09,15,38,13.40
2019,04,09,15,39,13.40
2019,04,09,15,40,13.40
2019,04,09,15,41,13.40
2019,04,09,15,42,13.30
2019,04,09,15,43,13.30
2019,04,09,15,44,13.40
2019,04,09,15,45,13.40
2019,04,09,15,46,13.40
2019,04,09,15,47,13.40
2019,04,09,15,48,13.30
2019,04,09,15,49,13.30
2019,04,09,15,50,13.30
2019,04,09,15,51,13.30
2019,04,09,15,52,13.30
2019,04,09,15,53,13.30
2019,04,09,15,54,13.30
2019,04,09,15,55,13.30
2019,04,09,15,56,13.30
2019,04,09,15,57,13.40
2019,04,09,15,58,13.40
2019,04,09,15,59,13.50
2019,04,09,16,00,13.50
2019,04,09,16,01,13.60
2019,04,09,16,02,13.60
2019,04,09,16,03,13.70
2019,04,09,16,04,13.70
2019,04,09,16,05,13.80
2019,04,09,16,06,13.80
2019,04,09,16,07,13.90
2019,04,09,16,08,13.90
2019,04,09,16,09,13.90
2019,04,09,16,10,14.00
2019,04,09,16,11,14.00
2019,04,09,16,12,14.00
2019,04,09,16,13,14.00
2019,04,09,16,14,13.90
2019,04,09,16,15,13.90
2019,04,09,16,16,13.90
2019,04,09,16,17,13.90
2019,04,09,16,18,13.80
2019,04,09,16,19,13.80
2019,04,09,16,20,13.80
2019,04,09,16,21,13.80
2019,04,09,16,22,13.80
2019,04,09,16,23,13.70
2019,04,09,16,24,13.70
2019,04,09,16,25,13.60
2019,04,09,16,26,13.60
2019,04,09,16,27,13.60
2019,04,09,16,28,13.60
2019,04,09,16,29,13.50
2019,04,09,16,30,13.50
2019,04,09,16,31,13.50
2019,04,09,16,32,13.40
2019,04,09,16,33,13.40
2019,04,09,16,34,13.40
2019,04,09,16,35,13.50
2019,04,09,16,36,13.60
2019,04,09,16,37,13.60
2019,04,09,16,38,13.60
2019,04,09,16,39,13.70
2019,04,09,16,40,13.70
2019,04,09,16,41,13.70
2019,04,09,16,42,13.70
2019,04,09,16,43,13.70
2019,04,09,16,44,13.70
2019,04,09,16,45,13.80
2019,04,09,16,46,13.80
2019,04,09,16,47,13.80
2019,04,09,16,48,13.80
2019,04,09,16,49,13.90
2019,04,09,16,50,13.90
2019,04,09,16,51,13.90
2019,04,09,16,52,13.90
2019,04,09,16,53,13.90
2019,04,09,16,54,13.90
2019,04,09,16,55,13.90
2019,04,09,16,56,13.90
2019,04,09,16,57,13.90
2019,04,09,16,58,13.90
2019,04,09,16,59,13.90
2019,04,09,17,00,13.80
2019,04,09,17,01,13.80
2019,04,09,17,02,13.80
2019,04,09,17,03,13.70
2019,04,09,17,04,13.70
2019,04,09,17,05,13.60
2019,04,09,17,06,13.60
2019,04,09,17,07,13.60
2019,04,09,17,08,13.60
2019,04,09,17,09,13.60
2019,04,09,17,10,13.60
2019,04,09,17,11,13.60
2019,04,09,17,12,13.50
2019,04,09,17,13,13.50
2019,04,09,17,14,13.40
2019,04,09,17,15,13.40
2019,04,09,17,16,13.40
2019,04,09,17,17,13.30
2019,04,09,17,18,13.30
2019,04,09,17,19,13.20
2019,04,09,17,20,13.20
2019,04,09,17,21,13.10
2019,04,09,17,22,13.10
2019,04,09,17,23,13.00
2019,04,09,17,24,13.00
2019,04,09,17,25,12.90
2019,04,09,17,26,12.90
2019,04,09,17,27,12.80
2019,04,09,17,28,12.80
2019,04,09,17,29,12.80
2019,04,09,17,30,12.70
2019,04,09,17,31,12.70
2019,04,09,17,32,12.70
2019,04,09,17,33,12.60
2019,04,09,17,34,12.60
2019,04,09,17,35,12.60
2019,04,09,17,36,12.60
2019,04,09,17,37,12.50
2019,04,09,17,38,12.50
2019,04,09,17,39,12.50
2019,04,09,17,40,12.40
2019,04,09,17,41,12.40
2019,04,09,17,42,12.40